Location: Colonia Mina de C?rbuni
(46.1667°N, 22.7167°E)
Time: 12:39:30
(UTC+00:00)

Cosmos 1844 - Pass Details

Date: 04 February 2023
Orbit: 822 x 868 km, 70.9° (Epoch: 25 March)

Event Time Altitude Azimuth Distance (km) Brightness Sun altitude
Rises 15:59:22 0° 337° (NNW) 3,465 6.9 -4.3°
Reaches altitude 10° 16:02:03 10° 346° (NNW) 2,523 6.1 -4.7°
Maximum altitude 16:07:24 37° 53° (NE) 1,331 4.3 -5.6°
Drops below altitude 10° 16:12:41 10° 120° (ESE) 2,498 5.8 -6.5°
Sets 16:15:20 0° 128° (SE) 3,425 6.5 -6.9°
